Regional Weather Roundup
Issued by NWS Charleston, SC

Current Version | Previous Version | Graphics & Text | Print | Product List | Glossary On
Versions: 1 2 3 4 5 6 7 8 9 10 11 12 13 14 15 16 17 18 19 20 21 22 23 24 25 26 27 28 29 30 31 32 33 34 35 36 37 38 39 40 41 42 43 44 45 46 47 48 49 50
000
ASUS42 KCHS 201327
RWRCHS

REGIONAL WEATHER ROUNDUP
NATIONAL WEATHER SERVICE CHARLESTON SC
800 AM EST MON FEB 20 2017

NOTE: "FAIR" INDICATES FEW OR NO CLOUDS BELOW 12,000 FEET WITH NO
SIGNIFICANT WEATHER AND/OR OBSTRUCTIONS TO VISIBILITY.

NOT ALL STATIONS ARE QUALITY CONTROLLED. USE DATA WITH CAUTION...
ESPECIALLY DEWPOINT OBSERVATIONS.

SCZ027-030-031-034>040-042>050-201400-
...SOUTHEAST SOUTH CAROLINA...

CITY           SKY/WX    TMP DP  RH WIND       PRES   REMARKS
N CHARLESTON   MOSUNNY   54  47  77 N5        30.17R
WATERFRONT PRK   N/A     56  48  74 N7        30.15R
MOUNT PLEASANT FAIR      54  46  76 CALM      30.18R
JOHNS ISLAND   FAIR      57  50  77 N7        30.17S
PINOPOLIS        N/A     55  48  76 N7        30.09R
MONCKS CORNER  FAIR      55  45  67 NE7       30.18S
SUMMERVILLE    FAIR      50  46  87 NE5       30.18F
BEAUFORT MCAS  SUNNY     55  52  89 N6        30.17R
BEAUFORT ARPT  FAIR      55  50  82 NE6       30.17R
HILTON HEAD IS MOSUNNY   59  57  94 NE9       30.17R
WALTERBORO     SUNNY     55  45  67 NE7       30.19R
ALLENDALE      FAIR      55  46  71 CALM      30.19R

...SOUTHERN MIDLANDS AND PEE DEE...

CITY           SKY/WX    TMP DP  RH WIND       PRES   REMARKS
GEORGETOWN     FAIR      54  46  76 N5        30.19R
KINGSTREE      FAIR      50  43  76 CALM      30.19R
ORANGEBURG     SUNNY     52  46  80 NE5       30.18R
BARNWELL       FAIR      52  50  93 CALM      30.21R
AIKEN          FAIR      50  45  81 NE6       30.23R
MANNING        FAIR      46  43  87 MISG      30.19R
COLUMBIA       MOSUNNY   44  40  85 CALM      30.19R
SUMTER         SUNNY     50  44  81 CALM      30.17R
FLORENCE       SUNNY     50  44  80 N5        30.19R
MYRTLE BEACH   SUNNY     52  45  76 N6        30.17R
N MYRTLE BEACH SUNNY     53  45  74 N8        30.17R

$$

GAZ063-065-086>088-099>101-113>116-118-119-134>141-150-201400-
...SOUTHEAST GEORGIA...

CITY           SKY/WX    TMP DP  RH WIND       PRES   REMARKS
SAVANNAH ARPT  CLOUDY    53  49  86 CALM      30.18R
HUNTER AAF     PTSUNNY   56  52  88 CALM      30.15R
FORT STEWART   SUNNY     49  47  92 CALM      30.15R
STATESBORO     MOSUNNY   49  32  51 CALM      30.18R
SYLVANIA       PTSUNNY  N/A N/A N/A CALM      30.19R
CLAXTON        FAIR     N/A N/A N/A CALM      30.18S HAZE

...CSRA...CENTRAL AND FAR SOUTHEAST GEORGIA...

CITY           SKY/WX    TMP DP  RH WIND       PRES   REMARKS
THOMSON        CLEAR     44  44 100 CALM      30.24S
AUGUSTA-BUSH   PTCLDY    48  44  86 CALM      30.19R
AUGUSTA-DANIEL PTCLDY    55  45  68 NE5       30.19R
SWAINSBORO     FAIR      55  50  82 NE6       30.19R
VIDALIA        MOSUNNY   55  54  94 CALM      30.18R
EASTMAN        FAIR      50  49  96 CALM      30.22R
HAZLEHURST     FAIR      56  56 100 CALM      30.17R
ALMA           MOSUNNY   54  52  93 CALM      30.16R
WAYCROSS       MOSUNNY   56  56 100 CALM      30.17R
JESUP          FAIR      54  50  87 CALM      30.17R
BAXLEY         FAIR      54  54 100 CALM      30.17R
BRUNSWICK      SUNNY     54  54 100 CALM      30.16R
SAINT SIMONS   SUNNY     56  53  90 N5        30.14R

$$

SCZ027-028-034-036>038-045-046-048>050-GAZ119-141-201400-
...LAKE AND SUPPLEMENTAL COASTAL OBSERVATIONS...

STATION/POSITION TIME  TEMP    WIND        PRES    WAVE   SWELL
                       AIR SEA DIR/SP/G            HT/PER HT/PER/DIR
                 (UTC) (F)     (DEG/KT/KT) (MB)    (FT/S) (FT/S/D)
WINYAH BAY       1230   53      20/  4     1021.0R
LAKE MURRAY      1220   49        CALM     1021.7
ACE BASIN NERRS  1230   49        CALM     1021.0R
FORT PULASKI     1300   58 60   20/  3/  4 1021.6
SAPELO ISLAND    1300   55      30/  4     1021.0

$$

ANZ835-935-AMZ111-154-330-350-352-354-370-450-454-472-201400-
...C-MAN AND BUOY OBSERVATIONS...

STATION/POSITION TIME  TEMP    WIND        PRES    WAVE   SWELL
                       AIR SEA DIR/SP/G            HT/PER HT/PER/DIR
                 (UTC) (F)     (DEG/KT/KT) (MB)    (FT/S) (FT/S/D)
BUOY 41004       1250   63 69   20/ 12/ 14 1020.5R   2/ 3
BUOY 41008       1250   62 62   20/  6/  8 1020.7R   1
FOLLY BEACH CMAN 1300   57     350/  6/  8 1022.2R
CAPERS NEARSHORE 1208   57 59   20/ 10/ 14 1020.6R
FRIPP NEARSHORE  1308   60 59   40/ 10/ 12 1021.2R


STATION/POSITION TIME  TEMP    WIND        PRES    WAVE   SWELL
                       AIR SEA DIR/SP/G            HT/PER HT/PER/DIR
                 (UTC) (F)     (DEG/KT/KT) (MB)    (FT/S) (FT/S/D)
5E ST. MARYS GA  1300      63                N/A     1
FRYING PAN BUOY  1300                      1021.0
BUOY 41025       1250   61 64   10/ 17/ 19 1020.7R   2/ 3   2/ 80/ 6
CAPE LOOKOUT NC  1300   55     360/ 14/ 19 1020.9R
BUOY 41002       1250   71 71   20/ 19/ 21 1018.3R   6/ 7
BUOY 41010       NOT AVBL
ST AUGUSTINE FL  1300   61 66  320/  2/  3 1021.6R


$$



USA.gov is the U.S. government's official web portal to all federal, state and local government web resources and services.